GW5759 Weather Reports


time (UTC)temp
C
wind
direction
speed
KPH
gust
KPH
rain 1hr
cm
rain 24hr
cm
rain mn
cm
humidity
%
barometer
mb
20260505210003 16 49 1.6 4.8 0.00 0.00 0.00 74 1004.2
20260505205403 16 45 0.0 3.2 0.00 0.00 0.00 74 1004.4
20260505204718 16 52 1.6 4.8 0.00 0.00 0.00 74 1004.3
20260505203818 16 27 1.6 6.4 0.00 0.00 0.00 73 1004.3
20260505202703 17 327 1.6 3.2 0.00 0.00 0.00 73 1004.4
20260505201803 17 48 1.6 4.8 0.00 0.00 0.00 72 1004.6
20260505200903 17 349 1.6 4.8 0.00 0.00 0.00 72 1004.6
20260505200003 17 19 1.6 6.4 0.00 0.00 0.00 72 1004.4
20260505195403 17 24 1.6 6.4 0.00 0.00 0.00 71 1004.6
20260505194503 18 12 1.6 6.4 0.00 0.00 0.00 71 1004.4
20260505193817 18 337 3.2 9.7 0.00 0.00 0.00 71 1004.5
20260505192703 18 334 1.6 6.4 0.00 0.00 0.00 70 1004.6
20260505191803 19 335 1.6 6.4 0.00 0.00 0.00 69 1004.7
20260505191119 19 311 3.2 6.4 0.00 0.00 0.00 69 1004.8
20260505190004 19 328 4.8 9.7 0.00 0.00 0.00 69 1004.9
20260505185404 19 324 3.2 6.4 0.00 0.00 0.00 69 1004.8
20260505184503 20 353 3.2 6.4 0.00 0.00 0.00 68 1004.6
20260505183603 20 332 3.2 6.4 0.00 0.00 0.00 68 1004.3
20260505180903 21 15 1.6 4.8 0.00 0.00 0.00 63 1003.8
20260505180003 21 320 1.6 3.2 0.00 0.00 0.00 61 1004.0
20260505175403 21 291 0.0 3.2 0.00 0.00 0.00 59 1004.1
20260505174504 21 332 1.6 3.2 0.00 0.00 0.00 56 1003.7
20260505173603 22 344 0.0 1.6 0.00 0.00 0.00 46 1003.9
20260505172703 22 346 0.0 3.2 0.00 0.00 0.00 44 1003.8
20260505170903 23 334 0.0 3.2 0.00 0.00 0.00 41 1003.8
20260505170003 23 319 0.0 3.2 0.00 0.00 0.00 40 1003.8
20260505165617 24 318 0.0 3.2 0.00 0.00 0.00 39 1003.8
20260505164503 25 330 0.0 1.6 0.00 0.00 0.00 38 1003.5
20260505163603 25 349 0.0 3.2 0.00 0.00 0.00 38 1003.8
20260505162703 26 24 0.0 1.6 0.00 0.00 0.00 35 1003.8
20260505161803 26 0 0.0 0.0 0.00 0.00 0.00 33 1003.8
20260505152703 28 38 0.0 3.2 0.00 0.00 0.00 30 1004.3
20260505151803 28 70 0.0 3.2 0.00 0.00 0.00 30 1004.3
20260505150903 29 51 0.0 1.6 0.00 0.00 0.00 29 1004.2
20260505150217 29 277 0.0 1.6 0.00 0.00 0.00 29 1004.4
20260505140217 28 297 1.6 4.8 0.00 0.00 0.00 33 1004.6
20260505124503 28 207 1.6 3.2 0.00 0.00 0.00 29 1005.2
20260505123603 29 309 1.6 4.8 0.00 0.00 0.00 26 1005.2
20260505122703 27 228 1.6 4.8 0.00 0.00 0.00 30 1005.4
20260505121803 27 221 3.2 6.4 0.00 0.00 0.00 31 1005.6
20260505120904 27 252 1.6 4.8 0.00 0.00 0.00 31 1005.7
20260505120004 28 245 1.6 4.8 0.00 0.00 0.00 31 1005.5
20260505115403 27 219 1.6 6.4 0.00 0.00 0.00 31 1005.4
20260505114503 27 189 1.6 3.2 0.00 0.00 0.00 30 1005.8
20260505113818 27 207 1.6 6.4 0.00 0.00 0.00 32 1005.6
20260505112704 27 142 1.6 4.8 0.00 0.00 0.00 33 1005.7
20260505111803 28 165 1.6 3.2 0.00 0.00 0.00 32 1005.7
20260505110903 27 233 1.6 3.2 0.00 0.00 0.00 35 1005.9
20260505101803 25 183 1.6 4.8 0.00 0.00 0.00 33 1006.5
20260505101120 26 186 3.2 9.7 0.00 0.00 0.00 36 1006.6
20260505100003 26 183 1.6 3.2 0.00 0.00 0.00 35 1006.6
20260505095403 26 183 1.6 3.2 0.00 0.00 0.00 35 1006.7
20260505094503 25 179 1.6 4.8 0.00 0.00 0.00 36 1006.8
20260505092703 25 211 0.0 3.2 0.00 0.00 0.00 41 1006.7
20260505091803 25 224 0.0 3.2 0.00 0.00 0.00 39 1006.8
20260505090219 24 54 1.6 4.8 0.00 0.00 0.00 47 1007.1
20260505085619 25 49 1.6 4.8 0.00 0.00 0.00 43 1007.5
20260505084503 23 223 0.0 3.2 0.00 0.00 0.00 49 1007.6
20260505083817 22 210 1.6 3.2 0.00 0.00 0.00 50 1007.5
20260505082703 23 0 0.0 0.0 0.00 0.00 0.00 50 1007.6
20260505080003 20 104 0.0 1.6 0.00 0.00 0.00 58 1007.9
20260505075403 20 104 0.0 1.6 0.00 0.00 0.00 59 1008.0
20260505074503 19 0 0.0 0.0 0.00 0.00 0.00 59 1008.0
20260505073603 19 0 0.0 0.0 0.00 0.00 0.00 59 1007.7
20260505072703 19 0 0.0 0.0 0.00 0.00 0.00 60 1007.9
20260505071803 18 0 0.0 0.0 0.00 0.00 0.00 61 1007.8
20260505070903 18 0 0.0 0.0 0.00 0.00 0.00 60 1007.9
20260505065403 19 0 0.0 0.0 0.00 0.00 0.00 59 1007.9
20260505064503 19 0 0.0 0.0 0.00 0.00 0.00 59 1008.2
20260505062704 18 54 0.0 3.2 0.00 0.00 0.00 62 1008.2
20260505061803 18 37 0.0 4.8 0.00 0.00 0.00 67 1008.2
20260505060903 18 14 0.0 1.6 0.00 0.00 0.00 68 1008.3
20260505060003 18 0 0.0 0.0 0.00 0.00 0.00 65 1008.3
20260505055403 18 100 0.0 1.6 0.00 0.00 0.00 68 1008.5
20260505054504 17 0 0.0 0.0 0.00 0.00 0.00 72 1008.4
20260505053603 17 0 0.0 0.0 0.00 0.00 0.00 72 1008.3
20260505052703 16 0 0.0 0.0 0.00 0.00 0.00 73 1008.6
20260505051805 16 114 0.0 1.6 0.00 0.00 0.00 74 1008.8
20260505050903 15 0 0.0 0.0 0.00 0.00 0.00 77 1008.7
20260505040904 10 0 0.0 0.0 0.00 0.00 0.00 91 1008.8
20260505040004 10 0 0.0 0.0 0.00 0.00 0.00 91 1009.0
20260505035403 10 0 0.0 0.0 0.00 0.00 0.00 91 1009.1
20260505034503 10 0 0.0 0.0 0.00 0.00 0.00 90 1009.0
20260505033603 10 0 0.0 0.0 0.00 0.00 0.00 90 1008.8
20260505032704 10 0 0.0 0.0 0.00 0.00 0.00 90 1008.9
20260505030903 10 0 0.0 0.0 0.00 0.00 0.00 90 1009.1
20260505030004 10 0 0.0 0.0 0.00 0.00 0.00 90 1009.2
20260505025403 10 0 0.0 0.0 0.00 0.00 0.00 90 1009.3
20260505024504 10 0 0.0 0.0 0.00 0.00 0.00 89 1009.3
20260505023819 10 0 0.0 0.0 0.00 0.00 0.00 89 1009.2
20260505022703 11 0 0.0 0.0 0.00 0.00 0.00 89 1009.4
20260505021804 11 0 0.0 0.0 0.00 0.00 0.00 89 1009.1
20260505021117 11 0 0.0 0.0 0.00 0.00 0.00 89 1009.4
20260505020004 11 0 0.0 0.0 0.00 0.00 0.00 89 1009.5
20260505015403 11 0 0.0 0.0 0.00 0.00 0.00 89 1009.6
20260505014503 11 0 0.0 0.0 0.00 0.00 0.00 90 1009.7
20260505013604 10 0 0.0 0.0 0.00 0.00 0.00 90 1009.5
20260505012703 10 0 0.0 0.0 0.00 0.00 0.00 90 1009.8
20260505011803 11 0 0.0 0.0 0.00 0.00 0.00 90 1009.6
20260505010903 10 0 0.0 0.0 0.00 0.00 0.00 91 1009.9
20260505010004 10 0 0.0 0.0 0.00 0.00 0.00 91 1009.7
20260505005403 10 0 0.0 0.0 0.00 0.00 0.00 90 1009.7
20260505004503 10 0 0.0 0.0 0.00 0.00 0.00 90 1009.7
20260505003604 11 0 0.0 0.0 0.00 0.00 0.00 90 1010.0
20260505002917 11 0 0.0 0.0 0.00 0.00 0.00 90 1010.0
20260505002017 11 0 0.0 0.0 0.00 0.00 0.00 89 1010.0
20260505000903 10 0 0.0 0.0 0.00 0.00 0.00 89 1010.1
20260505000004 10 0 0.0 0.0 0.00 0.00 0.00 90 1010.1
20260504235403 10 0 0.0 0.0 0.00 0.00 0.00 89 1010.2
20260504234503 10 0 0.0 0.0 0.00 0.00 0.00 89 1010.3
20260504233603 11 0 0.0 0.0 0.00 0.00 0.00 88 1010.6
20260504232703 11 0 0.0 0.0 0.00 0.00 0.00 88 1010.5
20260504232016 11 0 0.0 0.0 0.00 0.00 0.00 88 1010.4
20260504230903 11 0 0.0 0.0 0.00 0.00 0.00 88 1010.5
20260504230004 11 0 0.0 0.0 0.00 0.00 0.00 88 1010.6
20260504225403 11 0 0.0 0.0 0.00 0.00 0.00 88 1010.6
20260504224503 11 0 0.0 0.0 0.00 0.00 0.00 88 1010.5
20260504223603 11 0 0.0 0.0 0.00 0.00 0.00 88 1010.8
20260504222703 11 0 0.0 0.0 0.00 0.00 0.00 87 1010.9
20260504221803 11 0 0.0 0.0 0.00 0.00 0.00 87 1010.8
20260504220903 11 0 0.0 0.0 0.00 0.00 0.00 86 1010.5
20260504220004 11 0 0.0 0.0 0.00 0.00 0.00 86 1010.6
20260504215403 11 0 0.0 0.0 0.00 0.00 0.00 85 1010.8
20260504214718 12 0 0.0 0.0 0.00 0.00 0.00 84 1010.7
20260504210903 13 0 0.0 0.0 0.00 0.00 0.00 82 1010.7